Farmington, MO

11:43 AM CST on December 12, 2019 (GMT -0600)
Farmington Regional

Weather History for KFAM - July, 2019

Change the Weather History Date:

Sunday, July 14, 2019

  Actual Average Record
Temperature  
Mean Temperature 79 °F -  
Max Temperature 87 °F 84 °F 93 °F (2010)
Min Temperature 71 °F 64 °F 55 °F (1999)
Cooling Degree Days 14    
Growing Degree Days 29 (Base 50)    
Moisture  
Dew Point 70 °F    
Average Humidity 82    
Maximum Humidity 100    
Minimum Humidity 53    
Precipitation  
Precipitation 0.00 in - - ()
Sea Level Pressure  
Sea Level Pressure 30.14 in    
Wind  
Wind Speed 7 mph (South)    
Max Wind Speed 16 mph    
Max Gust Speed 21 mph    
Visibility 10 miles    
Events      
Averages and records for this station are not official NWS values.
T = Trace of Precipitation, MM = Missing Value Source: NWS Daily Summary

Daily Weather History Graph

Daily Weather History Graph

Search for Another Location

Airport or City:

Astronomy

Jul. 14, 2019 Rise Set
Actual Time 5:51 AM CDT 8:23 PM CDT
Civil Twilight 5:20 AM CDT 8:54 PM CDT
Nautical Twilight 4:42 AM CDT 9:32 PM CDT
Astronomical Twilight 4:00 AM CDT 10:14 PM CDT
Moon 6:46 PM CDT (7/14) 3:52 AM CDT (7/14)
Length of Visible Light 15h 33m
Length of Day
14h 32m
Waxing Gibbous, 95% of the Moon is Illuminated
Jul 14
Waxing Gibbous
Jul 16
Full
Jul 24
Last Quarter
Jul 31
New
Aug 7
First Quarter

Hourly Weather History & Observations

Time (CDT) Temp. Heat Index Dew Point Humidity Pressure Visibility Wind Dir Wind Speed Gust Speed Precip Events Conditions
12:56 AM 75.0 °F - 72.0 °F 90% 30.11 in 10.0 mi SSE 6.9 mph - N/A   Partly Cloudy
1:56 AM 75.0 °F - 72.0 °F 90% 30.11 in 10.0 mi South 5.8 mph - N/A   Clear
2:56 AM 73.9 °F - 72.0 °F 93% 30.09 in 10.0 mi SW 4.6 mph - N/A   Clear
3:56 AM 73.0 °F - 71.1 °F 93% 30.09 in 10.0 mi South 6.9 mph - N/A   Clear
4:56 AM 72.0 °F - 71.1 °F 97% 30.11 in 10.0 mi SSE 5.8 mph - N/A   Scattered Clouds
5:24 AM 71.6 °F - 71.6 °F 100% 30.12 in 10.0 mi South 5.8 mph - N/A   Mostly Cloudy
5:44 AM 71.6 °F - 71.6 °F 100% 30.12 in 10.0 mi SSW 3.5 mph - N/A   Scattered Clouds
5:51 AM 71.6 °F - 71.6 °F 100% 30.12 in 10.0 mi SSW 3.5 mph - N/A   Mostly Cloudy
5:56 AM 72.0 °F - 71.1 °F 97% 30.13 in 10.0 mi Calm Calm - N/A   Scattered Clouds
6:56 AM 73.0 °F - 71.1 °F 93% 30.14 in 10.0 mi SSE 3.5 mph - N/A   Clear
7:28 AM 73.4 °F - 71.6 °F 94% 30.15 in 10.0 mi South 5.8 mph - N/A   Scattered Clouds
7:56 AM 75.0 °F - 72.0 °F 90% 30.15 in 10.0 mi South 10.4 mph - N/A   Mostly Cloudy
8:27 AM 75.2 °F - 71.6 °F 89% 30.17 in 10.0 mi SSE 6.9 mph - N/A   Scattered Clouds
8:56 AM 79.0 °F - 71.1 °F 77% 30.18 in 10.0 mi South 6.9 mph - N/A   Clear
9:56 AM 80.1 °F 83.8 °F 72.0 °F 76% 30.17 in 10.0 mi South 9.2 mph - N/A   Partly Cloudy
10:56 AM 82.0 °F 86.3 °F 71.1 °F 69% 30.17 in 10.0 mi Variable 4.6 mph - N/A   Clear
11:56 AM 84.0 °F 89.0 °F 71.1 °F 65% 30.18 in 10.0 mi South 9.2 mph - N/A   Scattered Clouds
12:56 PM 84.9 °F 89.4 °F 70.0 °F 61% 30.17 in 10.0 mi South 12.7 mph - N/A   Clear
1:56 PM 86.0 °F 91.5 °F 71.1 °F 61% 30.17 in 10.0 mi South 11.5 mph 17.3 mph N/A   Scattered Clouds
2:56 PM 87.1 °F 90.6 °F 68.0 °F 53% 30.15 in 10.0 mi SSW 13.8 mph - N/A   Partly Cloudy
3:56 PM 82.0 °F 84.9 °F 68.0 °F 62% 30.15 in 10.0 mi South 15.0 mph - N/A   Clear
4:56 PM 82.0 °F 85.5 °F 69.1 °F 65% 30.15 in 10.0 mi South 15.0 mph - N/A   Clear
5:05 PM 82.4 °F 85.4 °F 68.0 °F 62% 30.15 in 10.0 mi South 13.8 mph - N/A   Partly Cloudy
5:56 PM 80.1 °F 82.7 °F 68.0 °F 67% 30.15 in 10.0 mi South 16.1 mph 20.7 mph N/A   Clear
6:56 PM 75.9 °F - 68.0 °F 76% 30.15 in 10.0 mi South 8.1 mph - N/A   Clear
7:56 PM 73.9 °F - 68.0 °F 82% 30.14 in 10.0 mi South 6.9 mph - N/A   Clear
8:56 PM 72.0 °F - 66.9 °F 84% 30.14 in 10.0 mi South 3.5 mph - 0.00 in   Partly Cloudy
9:56 PM 72.0 °F - 66.9 °F 84% 30.15 in 10.0 mi ESE 3.5 mph - N/A   Clear
10:56 PM 71.1 °F - 68.0 °F 90% 30.15 in 10.0 mi ESE 5.8 mph - 0.00 in   Scattered Clouds
11:56 PM 71.1 °F - 66.9 °F 87% 30.14 in 10.0 mi SE 6.9 mph - N/A   Clear